Content
SEND FEEDBACK

Daily
Averages
Monthly
Summary
United States of America

URBANA, ILLINOIS


Home > North America > United States > Illinois
Elevation: 753 feet     Latitude: 40 02N     Longitude: 088 16W

WEATHER
 
SELECT A DAY
Number of Records: 195,583;   Date Range: 1/1/95 - 7/26/14
 
SHARE

PRINT THIS DATA

[ ← Previous Day ]
WEATHER ALMANAC - JANUARY 23, 2013
[ Next Day → ]
[ °C ]   °F
Weather ElementAverageHighLow
Temperature20.9 °F32 °F (2:53 pm)10.9 °F (1:53 am)
Dewpoint7.9 °F16 °F (5:53 pm)1 °F (3:53 am)
Humidity57.7 %75 % (6:53 pm)45 % (2:53 pm)
Barometer30.27 in30.38 in (1:53 am)30.14 in (4:53 pm)
Wind Speed10.6 mph25.3 mph (10:53 pm)
Wind Gust34.5 mph (10:53 pm)
Weather ElementAverage
Visibility10 mi
Wind DirectionWSW (258.6 °)

Weather ElementTotal
Precipitation---
Heating Degree Days43.6 (Base 65)
Averaged from 22 records on January 23, 2013
WEATHER CONDITIONS BREAKOUT
WIND DIRECTION BREAKOUT
WEATHER BY HOUR - JANUARY 23, 2013
[ °C ]   °F
Local TimeTemperatureDewpointHumidityBarometerVisibilityWind DirectionWind SpeedGust SpeedPrecipitationEventsConditions
1:53 AM10.9 °F1.9 °F67 %30.38 in10.0 miWest (270°)4.6 mphScattered Clouds
2:53 AM14.0 °F1.9 °F59 %30.38 in10.0 miWest (260°)6.9 mphOvercast
3:53 AM15.1 °F1.0 °F54 %30.36 in10.0 miWest (260°)6.9 mphOvercast
4:53 AM15.1 °F1.0 °F54 %30.35 in10.0 miWest (260°)5.8 mphOvercast
5:53 AM15.1 °F1.0 °F54 %30.35 in10.0 miWest (270°)3.5 mphOvercast
6:53 AM15.1 °F1.0 °F54 %30.34 in10.0 miSSW (210°)5.8 mphOvercast
7:53 AM16.0 °F1.0 °F52 %30.34 in10.0 miSSW (200°)6.9 mphOvercast
8:53 AM17.1 °F3.0 °F54 %30.32 in10.0 miSouth (190°)11.5 mphOvercast
9:53 AM19.0 °F5.0 °F54 %30.33 in10.0 miSouth (190°)8.1 mphOvercast
10:53 AM21.9 °F7.0 °F53 %30.30 in10.0 miSSW (210°)10.4 mphOvercast
11:53 AM24.1 °F9.0 °F53 %30.26 in10.0 miSSW (210°)10.4 mphOvercast
12:53 PM28.0 °F10.0 °F47 %30.20 in10.0 miSW (230°)8.1 mphMostly Cloudy
1:53 PM30.0 °F12.0 °F47 %30.18 in10.0 miWest (260°)10.4 mph16.1 mphMostly Cloudy
2:53 PM32.0 °F12.9 °F45 %30.15 in10.0 miWest (270°)11.5 mph19.6 mphMostly Cloudy
4:53 PM30.0 °F15.1 °F54 %30.14 in10.0 miWest (260°)10.4 mphClear
5:53 PM27.0 °F16.0 °F63 %30.14 in10.0 miWest (270°)10.4 mphClear
6:53 PM21.9 °F15.1 °F75 %30.17 in10.0 miWNW (290°)6.9 mphClear
7:53 PM25.0 °F16.0 °F69 %30.19 in10.0 miWNW (290°)12.7 mphClear
8:53 PM24.1 °F15.1 °F69 %30.22 in10.0 miNW (310°)16.1 mphClear
9:53 PM23.0 °F12.9 °F65 %30.25 in10.0 miNW (320°)20.7 mph31.1 mphClear
10:53 PM19.0 °F8.1 °F62 %30.30 in10.0 miNNW (330°)25.3 mph34.5 mphPartly Cloudy
11:53 PM17.1 °F7.0 °F65 %30.34 in10.0 miNNW (330°)19.6 mphClear
Hourly data recorded from KCMI, located miles away from Urbana, Illinois







STORIES FROM OUR PARTNERS